Lid_Strength_Index
10 9 9 8 8 7 7 7 7 6 6 7 7 7 8 8 8 7 8 5 3 2 1 1 0 -2 -2 -1 1 -1 -1 -1 -1 -1 -1 -1 -1 -1 -1 -1 -1 -1 -1
10 9 8 8 8 7 7 6 6 6 6 6 6 6 7 7 8 7 7 8 4 2 1 1 -0 -2 -2 -1 -0 -1 -1 -1 -1 -1 -1 -1 -1 -1 -1 -1 -1 -1 -1
10 9 9 8 7 7 7 7 6 5 6 5 5 5 6 7 7 8 7 7 7 4 3 1 1 -2 -1 -1 -1 -1 -1 -1 -1 -1 -1 -1 -1 -1 -1 -1 -1 -1 -1
9 9 8 7 7 7 6 7 6 6 7 6 6 5 5 6 7 8 7 7 7 7 5 2 1 -2 -1 -1 -1 -1 0 2 2 0 -1 -1 -1 -1 -1 -1 -1 -1 -1
9 9 8 7 7 7 6 5 5 6 6 5 6 5 5 6 7 6 7 7 7 6 7 4 1 -1 -1 -2 -2 -1 -1 0 2 1 1 -0 -1 -1 -1 -1 -1 -1 -1
9 8 8 8 7 6 5 4 5 5 5 5 4 4 5 6 6 7 7 7 7 7 7 7 5 4 -1 -1 -1 -2 -1 1 1 2 2 1 2 -1 -1 -1 -1 -1 -1
8 8 7 6 5 5 4 4 4 6 5 4 5 6 5 6 7 8 7 8 8 7 8 7 4 4 3 -1 -1 -1 -1 0 1 2 2 2 1 1 1 -1 -1 -1 -1
8 7 7 6 5 5 4 5 4 5 4 3 5 5 8 8 6 6 7 8 9 8 8 7 5 4 4 4 3 -1 1 1 1 1 1 0 0 1 0 1 1 -1 -1
7 7 5 4 3 4 5 5 5 5 5 4 3 5 7 9 7 5 6 6 7 8 9 8 7 5 5 5 2 1 0 2 2 2 1 1 0 0 -0 -1 -0 -1 -1
8 7 4 4 4 4 5 5 4 4 4 5 3 2 3 5 7 8 6 5 6 7 8 8 8 6 5 5 3 1 -0 -0 2 3 2 2 1 1 -0 -1 -1 -1 -1
9 7 4 4 4 4 4 5 4 4 4 4 4 4 4 4 5 7 9 7 6 7 8 8 8 8 6 5 6 4 0 -1 -0 3 2 2 1 1 -0 -1 -1 -2 -2
9 8 5 4 5 4 4 3 4 4 4 4 4 4 5 6 6 7 7 7 7 7 7 7 7 7 5 6 5 3 1 -0 -1 1 2 2 2 1 1 0 -2 -2 -2
10 9 7 6 6 5 4 4 4 4 4 4 4 4 4 5 5 5 7 7 8 7 8 8 7 6 5 6 4 2 2 0 -1 1 1 2 2 1 0 0 -2 -1 -1
10 10 8 8 6 6 6 5 4 4 4 4 4 5 5 5 5 6 7 8 9 8 7 8 7 6 6 5 4 4 5 1 0 1 1 1 -0 -0 -1 -1 -1 -1 -1
9 9 9 9 8 7 7 7 7 7 5 6 5 5 5 4 5 5 7 8 10 11 9 7 7 6 6 6 4 7 6 3 1 1 0 0 0 -1 -1 -1 -1 -1 -1
10 10 9 9 8 8 8 8 8 6 6 6 6 7 5 5 5 5 7 6 8 10 11 9 7 6 6 5 4 6 6 5 3 1 1 -0 1 1 0 -1 -1 -0 -0
10 10 10 10 8 8 7 8 9 8 6 6 7 7 6 6 5 5 7 8 7 7 9 10 9 8 7 6 5 5 5 7 6 3 2 1 0 1 0 0 0 0 1
10 10 10 9 9 8 7 8 8 9 8 9 8 8 6 5 6 5 6 6 6 6 8 10 11 10 9 8 7 6 5 5 6 5 3 2 1 0 0 0 1 1 1
11 10 10 9 8 8 7 9 9 8 9 9 9 8 6 6 6 5 6 7 6 6 6 6 7 7 10 10 9 8 6 5 5 3 3 3 3 1 1 0 0 1 1
11 11 10 10 8 7 8 10 9 10 10 10 10 9 8 7 6 5 5 6 6 6 7 6 7 8 10 9 10 10 10 9 8 5 5 3 3 3 2 1 1 1 1
10 10 10 10 9 7 6 10 11 11 11 11 10 10 9 6 5 4 4 5 6 6 7 7 7 8 8 12 11 8 8 8 8 7 7 8 7 7 6 3 2 2 2
11 11 11 11 10 8 4 5 9 11 11 11 11 11 9 7 7 6 5 4 4 6 8 7 8 8 8 9 8 9 9 8 11 8 8 9 9 8 8 7 3 3 2
12 12 11 11 11 10 4 4 5 10 12 12 12 11 10 8 7 10 8 7 7 5 4 7 7 7 9 9 9 9 9 9 8 8 7 8 10 9 8 7 4 4 4
12 12 12 12 12 10 5 5 6 10 10 11 11 11 11 9 7 9 11 10 11 11 9 6 6 8 8 9 8 8 9 9 8 6 5 8 8 11 8 8 4 4 4
13 12 12 12 12 12 6 5 8 10 10 11 10 10 9 8 5 6 9 9 10 11 8 6 5 4 4 5 6 10 14 9 9 8 6 6 7 7 11 9 7 4 4
12 12 12 12 10 12 8 5 7 10 11 11 11 10 6 6 6 6 10 11 12 12 12 12 12 11 9 9 5 10 9 10 10 9 7 7 7 7 10 10 10 7 8